Location: Cul de Sac
(18.0387°N, 63.0654°W)
Time: 09:50:58
(UTC+00:00)

Hubble Space Telescope - Visible Passes

Search period start: 19 June 2021 00:00
Search period end: 29 June 2021 00:00
Orbit: 535 x 539 km, 28.5° (Epoch: 18 June)

Date Brightness Start Highest point End Pass type
(mag) Time Alt. Az. Time Alt. Az. Time Alt. Az.
19 Jun 3.4 01:08:15 10° WSW 01:09:06 14° WSW 01:09:06 14° WSW visible
19 Jun 0.8 23:15:14 10° WNW 23:19:20 74° SSW 23:23:26 10° ESE visible
20 Jun 3.4 00:57:59 10° WSW 00:58:45 12° SW 00:58:45 12° SW visible
